星链-31573 (STARLINK-31573 )

导读 | 星芒AI

STARLINK-31573 是 SpaceX Starlink 卫星互联网项目中的一颗低轨卫星,属于 Starlink 群体部署的一部分。该卫星于 2023 年发射,运行在约 550 公里的近地轨道上,旨在为全球用户提供高速互联网服务。它采用先进的通信技术,支持 Ku 和 Ka 频段,具备高带宽和低延迟特性。Starlink 项目致力于实现全球覆盖,特别是在偏远和网络基础设施薄弱的地区。STARLINK-31573 的运行有助于增强 Starlink 网络的稳定性和服务能力。

基本信息
目录编号:
59334
目录名称:
STARLINK-31573
国际标识:
2024-057Q
轨道中心:
EARTH
卫星名称:
星链-31573
卫星全名:
星链-31573 (STARLINK-31573 )
卫星状态:
在轨 (已飞行635 天)
发射日期:
2024-03-25 UTC
国别 :
美国 (US)
星等 :
--
轨道信息
数据来源 国际轨道数据
星历时间: 2025-12-19T11:09:11+0800
21小时前
查看轨道信息
半长轴: 6861.083km
偏心率: 0.0001864
轨道倾角: 43.006°
近地点辐角 252.799°
升交点赤经 281.596°
平近点角 107.266°
近地点: 481.667km
远地点: 484.225km
周期: 94.265分钟
每日圈数: 15.276145
详细信息
固有亮度:
5
最大亮度:
0.3
卫星平台:
Starlink v2.0 mini
覆盖范围:
全球
运营商:
太空探索技术公司
运营商所在国:
美国
制造商(研发单位):
太空探索技术公司
制造商所在国:
美国
使用方式:
暂无
卫星简介
星链(Starlink)计划是由太空探索技术公司(SpaceX)提出的一个巨型低轨卫星互联网星座项目,计划在2019年至2024年间在太空搭建由约1.2万颗卫星组成的“星链”网络,其中1584颗将部署在地球上空550千米处的近地轨道,并从2020年开始工作。该卫星仍在工作。
2D轨道图
3D轨道图
轨道高度分析图
轨道倾角分析图
轨道综合分析图
查看轨道综合分析图